This is the latest recevied weather packets stored in our database for station/object K5RWS. If no packets are shown the sender has not sent any weather packets the latest 10 day(s).
| Time | Temp. | Humidity | Pressure | Rain* | Wind** | Luminosity | Snow |
|---|---|---|---|---|---|---|---|
| 1777941090 | 23.33° C | 16% | 1012.2 hPa | 0 mm | - | 53 W/m² | - |
| 1777940786 | 23.33° C | 15% | 1012.1 hPa | 0 mm | - | 63 W/m² | - |
| 1777940484 | 23.33° C | 15% | 1012 hPa | 0 mm | - | 66 W/m² | - |
| 1777940181 | 23.89° C | 15% | 1012 hPa | 0 mm | - | 77 W/m² | - |
| 1777939878 | 23.89° C | 15% | 1012.1 hPa | 0 mm | - | 106 W/m² | - |
| 1777939576 | 23.89° C | 15% | 1012.1 hPa | 0 mm | - | 124 W/m² | - |
| 1777939273 | 23.89° C | 13% | 1011.9 hPa | 0 mm | - | 148 W/m² | - |
| 1777938969 | 23.89° C | 14% | 1012 hPa | 0 mm | - | 136 W/m² | - |
| 1777938666 | 23.89° C | 14% | 1011.9 hPa | 0 mm | - | 129 W/m² | - |
| 1777938364 | 23.89° C | 14% | 1012 hPa | 0 mm | - | 101 W/m² | - |
| 1777938061 | 23.89° C | 13% | 1012.2 hPa | 0 mm | - | 100 W/m² | - |
| 1777937761 | 23.89° C | 13% | 1012.2 hPa | 0 mm | - | 97 W/m² | - |
| 1777937458 | 23.89° C | 13% | 1012.2 hPa | 0 mm | - | 88 W/m² | - |
| 1777937155 | 23.89° C | 13% | 1012.3 hPa | 0 mm | - | 110 W/m² | - |
| 1777936853 | 23.89° C | 13% | 1012.2 hPa | 0 mm | - | 113 W/m² | - |
| 1777936549 | 23.33° C | 13% | 1012.3 hPa | 0 mm | - | 119 W/m² | - |
| 1777936245 | 23.89° C | 13% | 1012 hPa | 0 mm | - | 116 W/m² | - |
| 1777935941 | 23.89° C | 13% | 1012.3 hPa | 0 mm | - | 120 W/m² | - |
| 1777935641 | 23.89° C | 13% | 1012.2 hPa | 0 mm | - | 135 W/m² | - |
| 1777935337 | 23.89° C | 13% | 1012 hPa | 0 mm | - | 164 W/m² | - |
| 1777935034 | 23.89° C | 13% | 1012.2 hPa | 0 mm | - | 162 W/m² | - |
| 1777934731 | 23.89° C | 12% | 1012.3 hPa | 0 mm | - | 166 W/m² | - |
| 1777934428 | 23.89° C | 13% | 1012.1 hPa | 0 mm | - | 191 W/m² | - |
| 1777934125 | 24.44° C | 12% | 1012.3 hPa | 0 mm | - | 202 W/m² | - |
| 1777933821 | 24.44° C | 12% | 1012.2 hPa | 0 mm | - | 245 W/m² | - |
* Rain latest hour (hover to see other rain measurements)
** Current wind speed in m/s (hover to see current wind gust speed)